QPF
0.02 0.01 0.02 0.02 0.00 0.00 0.01 0.01 0.01 0.01 0.01 0.01 0.01 0.00 0.01 0.02 0.03 0.04 0.05 0.04 0.03 0.02 0.03 0.04 0.09 0.11 0.11 0.13 0.12 0.07 0.06 0.03 0.03 0.03 0.04 0.03 0.03 0.03 0.03 0.06 0.07 0.06 0.05 0.05 0.05 0.10 0.15 0.15 0.18
0.00 0.01 0.03 0.03 0.00 0.01 0.02 0.01 0.02 0.01 0.01 0.01 0.00 0.01 0.01 0.01 0.02 0.04 0.06 0.05 0.03 0.02 0.02 0.05 0.11 0.13 0.11 0.09 0.08 0.07 0.08 0.05 0.04 0.03 0.03 0.04 0.03 0.03 0.03 0.05 0.06 0.06 0.05 0.05 0.04 0.06 0.07 0.08 0.12
0.01 0.03 0.03 0.02 0.00 0.01 0.02 0.02 0.02 0.01 0.00 0.00 0.00 0.00 0.00 0.01 0.01 0.03 0.05 0.05 0.03 0.02 0.01 0.03 0.07 0.08 0.07 0.04 0.05 0.05 0.06 0.03 0.03 0.02 0.02 0.02 0.03 0.03 0.04 0.06 0.05 0.05 0.05 0.04 0.03 0.03 0.03 0.05 0.06
0.03 0.03 0.02 0.01 0.01 0.01 0.01 0.02 0.02 0.01 0.01 0.00 0.00 0.00 0.01 0.01 0.02 0.02 0.05 0.05 0.04 0.02 0.01 0.02 0.04 0.04 0.04 0.02 0.02 0.03 0.04 0.03 0.02 0.02 0.02 0.02 0.02 0.03 0.04 0.06 0.05 0.05 0.04 0.03 0.02 0.02 0.03 0.04 0.04
0.04 0.03 0.03 0.02 0.01 0.01 0.01 0.02 0.02 0.01 0.01 0.01 0.00 0.00 0.01 0.01 0.01 0.02 0.04 0.04 0.04 0.03 0.01 0.02 0.04 0.03 0.02 0.02 0.03 0.03 0.03 0.02 0.02 0.02 0.02 0.01 0.01 0.01 0.03 0.03 0.03 0.03 0.03 0.04 0.03 0.03 0.04 0.04 0.05
0.02 0.02 0.04 0.03 0.02 0.02 0.02 0.02 0.01 0.00 0.00 0.00 0.00 0.00 0.01 0.01 0.01 0.01 0.03 0.04 0.04 0.03 0.03 0.03 0.04 0.04 0.04 0.03 0.03 0.02 0.02 0.02 0.02 0.02 0.02 0.01 0.01 0.01 0.01 0.02 0.02 0.02 0.04 0.08 0.05 0.04 0.04 0.04 0.04
0.01 0.01 0.02 0.02 0.02 0.03 0.03 0.02 0.01 0.01 0.00 0.00 0.00 0.00 0.01 0.01 0.01 0.02 0.03 0.03 0.03 0.03 0.04 0.04 0.03 0.02 0.03 0.03 0.03 0.03 0.03 0.02 0.02 0.02 0.02 0.01 0.02 0.01 0.01 0.02 0.02 0.03 0.06 0.10 0.07 0.05 0.05 0.05 0.05
0.01 0.01 0.00 0.01 0.01 0.03 0.03 0.01 0.01 0.01 0.00 0.00 0.00 0.00 0.00 0.01 0.01 0.01 0.02 0.02 0.01 0.02 0.02 0.02 0.01 0.01 0.01 0.01 0.02 0.03 0.03 0.04 0.04 0.04 0.03 0.02 0.02 0.02 0.02 0.02 0.03 0.04 0.06 0.11 0.10 0.08 0.10 0.09 0.07
0.01 0.01 0.00 0.00 0.01 0.02 0.02 0.00 0.00 0.00 0.00 0.00 0.00 0.00 0.00 0.00 0.01 0.01 0.01 0.01 0.01 0.01 0.01 0.01 0.01 0.01 0.01 0.01 0.01 0.02 0.02 0.03 0.04 0.04 0.04 0.03 0.01 0.01 0.01 0.02 0.04 0.03 0.06 0.12 0.15 0.15 0.13 0.10 0.08
0.01 0.01 0.01 0.00 0.00 0.01 0.01 0.01 0.00 0.01 0.00 0.00 0.00 0.01 0.01 0.00 0.00 0.01 0.01 0.01 0.01 0.01 0.01 0.01 0.01 0.01 0.01 0.01 0.01 0.01 0.01 0.01 0.01 0.01 0.02 0.01 0.00 0.00 0.00 0.01 0.02 0.03 0.04 0.06 0.10 0.11 0.08 0.07 0.05
0.00 0.01 0.00 0.00 0.00 0.01 0.01 0.00 0.01 0.01 0.00 0.01 0.01 0.01 0.01 0.01 0.00 0.00 0.01 0.01 0.01 0.02 0.01 0.01 0.01 0.02 0.01 0.01 0.01 0.02 0.02 0.01 0.01 0.01 0.01 0.00 0.00 0.00 0.00 0.00 0.00 0.01 0.01 0.02 0.03 0.04 0.04 0.03 0.03
0.00 0.00 0.00 0.00 0.00 0.00 0.01 0.01 0.00 0.00 0.00 0.01 0.01 0.01 0.01 0.01 0.01 0.01 0.01 0.01 0.01 0.02 0.02 0.01 0.01 0.01 0.01 0.02 0.02 0.02 0.02 0.02 0.01 0.00 0.00 0.00 0.00 0.00 0.00 0.00 0.00 0.00 0.00 0.01 0.01 0.02 0.02 0.03 0.02
0.00 0.00 0.00 0.00 0.00 0.01 0.01 0.01 0.01 0.00 0.00 0.00 0.00 0.00 0.01 0.01 0.00 0.00 0.01 0.01 0.01 0.02 0.02 0.02 0.01 0.01 0.02 0.02 0.03 0.03 0.03 0.02 0.02 0.01 0.00 0.00 0.00 0.00 0.00 0.00 0.00 0.01 0.01 0.01 0.01 0.03 0.04 0.03 0.03
0.01 0.01 0.01 0.02 0.01 0.01 0.02 0.01 0.01 0.01 0.00 0.00 0.00 0.01 0.01 0.01 0.01 0.00 0.00 0.01 0.01 0.02 0.02 0.02 0.01 0.02 0.02 0.02 0.03 0.05 0.04 0.03 0.02 0.01 0.00 0.00 0.00 0.00 0.00 0.00 0.00 0.01 0.01 0.00 0.01 0.01 0.02 0.02 0.02
0.01 0.01 0.02 0.03 0.03 0.02 0.02 0.02 0.01 0.01 0.01 0.00 0.00 0.01 0.01 0.01 0.01 0.01 0.00 0.00 0.00 0.01 0.01 0.02 0.02 0.02 0.02 0.02 0.04 0.04 0.04 0.03 0.03 0.03 0.01 0.00 0.00 0.01 0.01 0.01 0.01 0.01 0.00 0.00 0.00 0.01 0.01 0.02 0.02
0.01 0.01 0.01 0.02 0.02 0.02 0.02 0.01 0.01 0.01 0.01 0.00 0.00 0.01 0.01 0.01 0.01 0.01 0.01 0.00 0.00 0.00 0.01 0.01 0.01 0.02 0.02 0.02 0.04 0.06 0.05 0.05 0.04 0.04 0.03 0.02 0.01 0.01 0.01 0.01 0.00 0.00 0.01 0.01 0.01 0.01 0.01 0.01 0.03
0.02 0.01 0.01 0.01 0.01 0.02 0.02 0.00 0.00 0.00 0.00 0.00 0.00 0.00 0.01 0.01 0.01 0.01 0.01 0.01 0.01 0.01 0.01 0.01 0.01 0.01 0.02 0.02 0.03 0.05 0.05 0.04 0.05 0.06 0.06 0.04 0.02 0.01 0.01 0.01 0.01 0.01 0.01 0.01 0.02 0.01 0.01 0.02 0.03
0.01 0.01 0.01 0.00 0.00 0.01 0.01 0.00 0.00 0.00 0.00 0.00 0.00 0.00 0.00 0.00 0.01 0.01 0.01 0.01 0.01 0.01 0.01 0.01 0.01 0.01 0.01 0.02 0.03 0.05 0.04 0.04 0.04 0.05 0.07 0.06 0.03 0.02 0.02 0.02 0.02 0.02 0.02 0.02 0.03 0.03 0.02 0.03 0.03
0.01 0.01 0.01 0.01 0.00 0.00 0.00 0.00 0.00 0.01 0.00 0.00 0.00 0.00 0.00 0.00 0.00 0.00 0.01 0.01 0.01 0.01 0.01 0.01 0.01 0.01 0.01 0.02 0.02 0.05 0.06 0.04 0.03 0.05 0.06 0.06 0.04 0.02 0.02 0.03 0.02 0.03 0.03 0.03 0.03 0.03 0.02 0.02 0.02
0.02 0.01 0.01 0.01 0.00 0.00 0.00 0.01 0.01 0.01 0.00 0.00 0.00 0.00 0.00 0.00 0.00 0.00 0.00 0.00 0.00 0.01 0.01 0.01 0.02 0.02 0.01 0.02 0.02 0.04 0.08 0.08 0.06 0.06 0.07 0.06 0.05 0.04 0.03 0.02 0.01 0.02 0.02 0.02 0.02 0.03 0.03 0.03 0.02
0.02 0.01 0.00 0.00 0.01 0.01 0.01 0.01 0.01 0.01 0.00 0.00 0.00 0.00 0.00 0.00 0.00 0.00 0.00 0.00 0.00 0.01 0.01 0.01 0.02 0.02 0.02 0.02 0.02 0.04 0.07 0.10 0.08 0.05 0.04 0.05 0.05 0.04 0.03 0.02 0.02 0.01 0.01 0.01 0.02 0.03 0.03 0.02 0.02
0.02 0.01 0.01 0.01 0.02 0.01 0.01 0.01 0.00 0.00 0.00 0.00 0.00 0.00 0.00 0.00 0.00 0.01 0.01 0.01 0.01 0.01 0.01 0.01 0.01 0.01 0.01 0.02 0.02 0.03 0.06 0.08 0.08 0.06 0.06 0.05 0.04 0.04 0.04 0.03 0.03 0.02 0.01 0.01 0.01 0.01 0.02 0.02 0.02
0.01 0.00 0.01 0.01 0.01 0.01 0.00 0.00 0.00 0.00 0.00 0.00 0.00 0.00 0.00 0.00 0.00 0.00 0.01 0.02 0.01 0.01 0.01 0.01 0.01 0.01 0.02 0.02 0.03 0.03 0.04 0.06 0.08 0.07 0.08 0.07 0.06 0.05 0.05 0.05 0.05 0.03 0.01 0.00 0.01 0.01 0.01 0.02 0.02
0.01 0.01 0.01 0.01 0.01 0.00 0.00 0.00 0.00 0.00 0.00 0.00 0.00 0.00 0.00 0.00 0.00 0.00 0.01 0.02 0.01 0.01 0.02 0.02 0.02 0.02 0.01 0.02 0.03 0.03 0.04 0.05 0.08 0.08 0.08 0.08 0.06 0.04 0.04 0.05 0.04 0.03 0.02 0.01 0.01 0.01 0.01 0.02 0.02
0.01 0.01 0.01 0.01 0.01 0.00 0.00 0.00 0.00 0.00 0.00 0.00 0.00 0.00 0.00 0.00 0.00 0.00 0.01 0.01 0.01 0.02 0.02 0.01 0.02 0.02 0.02 0.02 0.02 0.02 0.04 0.06 0.08 0.07 0.05 0.04 0.04 0.04 0.03 0.03 0.03 0.03 0.02 0.01 0.01 0.01 0.00 0.01 0.01
0.01 0.01 0.00 0.00 0.00 0.00 0.00 0.00 0.00 0.00 0.00 0.00 0.00 0.00 0.00 0.00 0.00 0.00 0.01 0.01 0.02 0.02 0.02 0.01 0.01 0.01 0.02 0.02 0.02 0.02 0.03 0.05 0.07 0.06 0.05 0.04 0.04 0.05 0.04 0.03 0.02 0.02 0.02 0.02 0.01 0.01 0.00 0.00 0.00
0.00 0.00 0.00 0.00 0.00 0.00 0.01 0.00 0.00 0.00 0.00 0.00 0.00 0.00 0.00 0.00 0.00 0.00 0.00 0.01 0.01 0.01 0.01 0.01 0.01 0.01 0.02 0.02 0.02 0.01 0.02 0.04 0.05 0.05 0.04 0.03 0.03 0.03 0.04 0.03 0.02 0.02 0.02 0.02 0.02 0.01 0.01 0.00 0.00
0.00 0.00 0.00 0.00 0.00 0.00 0.00 0.01 0.00 0.00 0.00 0.00 0.00 0.00 0.00 0.00 0.00 0.00 0.01 0.02 0.02 0.01 0.01 0.01 0.01 0.01 0.01 0.01 0.02 0.03 0.05 0.07 0.06 0.05 0.04 0.03 0.02 0.02 0.03 0.03 0.02 0.02 0.01 0.01 0.01 0.01 0.01 0.00 0.00
0.00 0.00 0.00 0.00 0.00 0.00 0.00 0.00 0.01 0.00 0.00 0.00 0.00 0.00 0.00 0.00 0.01 0.01 0.01 0.01 0.01 0.01 0.01 0.02 0.03 0.02 0.02 0.02 0.03 0.05 0.06 0.05 0.04 0.03 0.03 0.03 0.02 0.02 0.02 0.03 0.03 0.02 0.01 0.01 0.01 0.00 0.01 0.01 0.00
0.00 0.00 0.00 0.00 0.00 0.01 0.00 0.00 0.00 0.00 0.00 0.00 0.00 0.00 0.00 0.00 0.01 0.01 0.00 0.00 0.00 0.00 0.01 0.02 0.03 0.02 0.01 0.01 0.02 0.02 0.02 0.02 0.03 0.04 0.03 0.03 0.03 0.02 0.02 0.02 0.02 0.03 0.03 0.02 0.01 0.01 0.00 0.00 0.01
MSLP
1008.05 1009.14 1010.46 1011.82 1013.06 1014.05 1014.69 1014.95 1014.90 1014.63 1014.28 1013.97 1013.78 1013.75 1013.84 1013.99 1014.12 1014.14 1014.02 1013.76 1013.40 1013.02 1012.70 1012.49 1012.43 1012.50 1012.64 1012.80 1012.91 1012.93 1012.86 1012.72 1012.57 1012.47 1012.47 1012.57 1012.77 1013.02 1013.27 1013.45 1013.53 1013.49 1013.35 1013.18 1013.02 1012.93 1012.96 1013.11 1013.37
1008.65 1009.89 1011.27 1012.61 1013.75 1014.57 1014.98 1015.02 1014.74 1014.28 1013.79 1013.39 1013.17 1013.13 1013.25 1013.45 1013.63 1013.70 1013.64 1013.44 1013.16 1012.85 1012.60 1012.47 1012.47 1012.59 1012.78 1012.97 1013.10 1013.15 1013.12 1013.02 1012.91 1012.84 1012.86 1012.97 1013.16 1013.38 1013.59 1013.72 1013.75 1013.67 1013.52 1013.34 1013.18 1013.10 1013.13 1013.27 1013.52
1009.43 1010.76 1012.14 1013.39 1014.36 1014.96 1015.14 1014.94 1014.47 1013.88 1013.30 1012.87 1012.65 1012.64 1012.80 1013.03 1013.23 1013.34 1013.31 1013.16 1012.92 1012.68 1012.50 1012.43 1012.50 1012.67 1012.90 1013.12 1013.29 1013.38 1013.37 1013.31 1013.24 1013.20 1013.23 1013.34 1013.50 1013.67 1013.82 1013.90 1013.88 1013.78 1013.62 1013.45 1013.32 1013.27 1013.31 1013.47 1013.71
1010.34 1011.68 1012.99 1014.09 1014.86 1015.21 1015.16 1014.77 1014.16 1013.49 1012.89 1012.48 1012.29 1012.33 1012.51 1012.76 1012.98 1013.09 1013.07 1012.93 1012.73 1012.54 1012.41 1012.41 1012.53 1012.75 1013.01 1013.27 1013.46 1013.57 1013.60 1013.58 1013.54 1013.52 1013.56 1013.65 1013.77 1013.89 1013.98 1014.00 1013.95 1013.84 1013.69 1013.56 1013.47 1013.46 1013.54 1013.72 1013.96
1011.26 1012.56 1013.73 1014.64 1015.17 1015.29 1015.04 1014.51 1013.82 1013.13 1012.57 1012.22 1012.10 1012.19 1012.41 1012.66 1012.86 1012.95 1012.91 1012.77 1012.59 1012.44 1012.37 1012.42 1012.58 1012.84 1013.13 1013.40 1013.61 1013.74 1013.79 1013.79 1013.77 1013.77 1013.81 1013.88 1013.97 1014.04 1014.08 1014.06 1013.99 1013.88 1013.77 1013.68 1013.66 1013.70 1013.83 1014.02 1014.25
1012.07 1013.26 1014.26 1014.94 1015.24 1015.16 1014.76 1014.14 1013.43 1012.79 1012.32 1012.06 1012.04 1012.18 1012.42 1012.67 1012.84 1012.89 1012.83 1012.68 1012.52 1012.40 1012.38 1012.47 1012.68 1012.96 1013.26 1013.53 1013.74 1013.87 1013.93 1013.94 1013.94 1013.95 1013.99 1014.06 1014.12 1014.16 1014.17 1014.13 1014.05 1013.96 1013.89 1013.86 1013.89 1014.00 1014.16 1014.37 1014.59
1012.66 1013.69 1014.47 1014.93 1015.03 1014.78 1014.28 1013.64 1012.99 1012.44 1012.09 1011.96 1012.02 1012.23 1012.48 1012.71 1012.85 1012.86 1012.77 1012.63 1012.48 1012.41 1012.43 1012.57 1012.81 1013.10 1013.40 1013.66 1013.86 1013.97 1014.03 1014.05 1014.06 1014.09 1014.14 1014.20 1014.26 1014.28 1014.28 1014.23 1014.16 1014.09 1014.06 1014.08 1014.17 1014.32 1014.52 1014.74 1014.95
1012.98 1013.81 1014.38 1014.62 1014.54 1014.19 1013.65 1013.03 1012.47 1012.06 1011.84 1011.83 1011.99 1012.24 1012.51 1012.71 1012.81 1012.80 1012.70 1012.56 1012.45 1012.42 1012.50 1012.69 1012.96 1013.27 1013.56 1013.80 1013.97 1014.07 1014.11 1014.13 1014.16 1014.21 1014.27 1014.35 1014.41 1014.44 1014.43 1014.38 1014.32 1014.27 1014.27 1014.33 1014.46 1014.65 1014.88 1015.11 1015.31
1013.04 1013.67 1014.03 1014.09 1013.87 1013.45 1012.91 1012.37 1011.92 1011.64 1011.56 1011.66 1011.89 1012.17 1012.43 1012.61 1012.68 1012.65 1012.55 1012.43 1012.37 1012.40 1012.54 1012.78 1013.09 1013.41 1013.70 1013.92 1014.07 1014.16 1014.20 1014.22 1014.27 1014.34 1014.44 1014.54 1014.62 1014.66 1014.66 1014.61 1014.55 1014.51 1014.52 1014.60 1014.75 1014.96 1015.20 1015.44 1015.65
1012.93 1013.37 1013.54 1013.45 1013.14 1012.69 1012.18 1011.72 1011.39 1011.23 1011.26 1011.44 1011.71 1012.00 1012.24 1012.39 1012.43 1012.38 1012.29 1012.21 1012.20 1012.30 1012.50 1012.79 1013.14 1013.48 1013.78 1014.01 1014.15 1014.23 1014.28 1014.33 1014.40 1014.51 1014.64 1014.77 1014.87 1014.93 1014.94 1014.90 1014.83 1014.79 1014.79 1014.87 1015.02 1015.24 1015.49 1015.74 1015.96
1012.78 1013.05 1013.07 1012.88 1012.51 1012.06 1011.59 1011.21 1010.97 1010.91 1011.00 1011.22 1011.50 1011.76 1011.97 1012.07 1012.08 1012.01 1011.93 1011.88 1011.91 1012.06 1012.32 1012.67 1013.06 1013.44 1013.76 1014.01 1014.17 1014.28 1014.35 1014.43 1014.54 1014.69 1014.86 1015.03 1015.16 1015.24 1015.26 1015.22 1015.15 1015.09 1015.08 1015.14 1015.28 1015.49 1015.74 1016.01 1016.26
1012.73 1012.86 1012.78 1012.51 1012.11 1011.67 1011.26 1010.94 1010.76 1010.74 1010.85 1011.06 1011.30 1011.52 1011.66 1011.71 1011.67 1011.58 1011.48 1011.44 1011.50 1011.69 1011.99 1012.38 1012.81 1013.23 1013.60 1013.89 1014.11 1014.26 1014.39 1014.52 1014.68 1014.87 1015.08 1015.29 1015.45 1015.56 1015.59 1015.55 1015.48 1015.41 1015.38 1015.41 1015.53 1015.73 1015.99 1016.27 1016.55
1012.86 1012.90 1012.75 1012.44 1012.04 1011.62 1011.23 1010.95 1010.79 1010.78 1010.87 1011.03 1011.21 1011.35 1011.41 1011.39 1011.28 1011.14 1011.01 1010.95 1011.00 1011.18 1011.50 1011.91 1012.38 1012.85 1013.28 1013.65 1013.94 1014.17 1014.37 1014.56 1014.78 1015.01 1015.26 1015.50 1015.70 1015.83 1015.89 1015.87 1015.81 1015.73 1015.69 1015.71 1015.81 1016.00 1016.26 1016.56 1016.86
1013.22 1013.22 1013.03 1012.71 1012.31 1011.90 1011.54 1011.26 1011.10 1011.04 1011.08 1011.17 1011.25 1011.30 1011.28 1011.17 1010.99 1010.77 1010.58 1010.46 1010.46 1010.61 1010.90 1011.32 1011.81 1012.34 1012.84 1013.30 1013.68 1014.01 1014.29 1014.55 1014.82 1015.10 1015.38 1015.64 1015.87 1016.03 1016.12 1016.14 1016.11 1016.05 1016.02 1016.04 1016.14 1016.33 1016.58 1016.89 1017.20
1013.78 1013.74 1013.54 1013.23 1012.85 1012.46 1012.10 1011.81 1011.61 1011.50 1011.46 1011.45 1011.45 1011.41 1011.29 1011.10 1010.84 1010.54 1010.26 1010.06 1009.98 1010.05 1010.29 1010.68 1011.19 1011.76 1012.34 1012.89 1013.39 1013.81 1014.18 1014.51 1014.82 1015.12 1015.42 1015.70 1015.95 1016.14 1016.28 1016.35 1016.37 1016.36 1016.37 1016.42 1016.53 1016.72 1016.97 1017.27 1017.58
1014.42 1014.37 1014.18 1013.89 1013.54 1013.16 1012.80 1012.49 1012.24 1012.06 1011.94 1011.85 1011.77 1011.65 1011.46 1011.20 1010.87 1010.49 1010.12 1009.81 1009.62 1009.60 1009.76 1010.11 1010.62 1011.22 1011.88 1012.53 1013.12 1013.65 1014.09 1014.47 1014.81 1015.11 1015.41 1015.68 1015.94 1016.17 1016.35 1016.49 1016.58 1016.65 1016.72 1016.81 1016.95 1017.15 1017.41 1017.70 1017.99
1015.02 1014.98 1014.82 1014.56 1014.25 1013.90 1013.54 1013.20 1012.90 1012.66 1012.46 1012.30 1012.15 1011.98 1011.75 1011.45 1011.06 1010.62 1010.17 1009.77 1009.47 1009.35 1009.43 1009.72 1010.21 1010.84 1011.55 1012.28 1012.96 1013.57 1014.07 1014.48 1014.82 1015.11 1015.37 1015.63 1015.89 1016.13 1016.36 1016.57 1016.74 1016.90 1017.04 1017.20 1017.38 1017.59 1017.85 1018.12 1018.39
1015.47 1015.46 1015.34 1015.15 1014.89 1014.57 1014.22 1013.86 1013.52 1013.21 1012.94 1012.73 1012.53 1012.33 1012.09 1011.78 1011.39 1010.92 1010.42 1009.95 1009.57 1009.35 1009.34 1009.57 1010.04 1010.68 1011.43 1012.21 1012.96 1013.62 1014.16 1014.58 1014.90 1015.14 1015.36 1015.58 1015.81 1016.06 1016.33 1016.60 1016.85 1017.09 1017.32 1017.53 1017.76 1017.99 1018.25 1018.50 1018.74
1015.70 1015.74 1015.70 1015.60 1015.41 1015.15 1014.82 1014.45 1014.06 1013.69 1013.36 1013.09 1012.86 1012.66 1012.44 1012.16 1011.79 1011.34 1010.83 1010.33 1009.89 1009.61 1009.54 1009.71 1010.13 1010.76 1011.53 1012.34 1013.13 1013.81 1014.36 1014.77 1015.04 1015.24 1015.39 1015.56 1015.76 1016.00 1016.28 1016.60 1016.91 1017.22 1017.51 1017.79 1018.05 1018.30 1018.54 1018.78 1019.00
1015.71 1015.83 1015.91 1015.92 1015.84 1015.65 1015.35 1014.97 1014.53 1014.09 1013.69 1013.37 1013.11 1012.91 1012.73 1012.50 1012.20 1011.81 1011.35 1010.86 1010.41 1010.09 1009.97 1010.09 1010.47 1011.07 1011.82 1012.63 1013.42 1014.10 1014.64 1015.01 1015.24 1015.38 1015.48 1015.58 1015.74 1015.96 1016.24 1016.58 1016.94 1017.29 1017.62 1017.93 1018.21 1018.47 1018.71 1018.93 1019.12
1015.54 1015.78 1016.01 1016.17 1016.22 1016.13 1015.87 1015.46 1014.97 1014.45 1013.96 1013.56 1013.27 1013.07 1012.92 1012.77 1012.56 1012.27 1011.89 1011.46 1011.05 1010.73 1010.58 1010.65 1010.98 1011.52 1012.22 1012.99 1013.75 1014.40 1014.91 1015.25 1015.44 1015.53 1015.58 1015.64 1015.75 1015.95 1016.22 1016.55 1016.92 1017.29 1017.64 1017.95 1018.23 1018.49 1018.71 1018.92 1019.10
1015.28 1015.67 1016.08 1016.43 1016.63 1016.63 1016.40 1015.98 1015.42 1014.79 1014.19 1013.69 1013.33 1013.11 1012.99 1012.92 1012.82 1012.65 1012.39 1012.05 1011.70 1011.41 1011.25 1011.28 1011.54 1012.01 1012.63 1013.33 1014.02 1014.63 1015.10 1015.41 1015.58 1015.64 1015.66 1015.69 1015.78 1015.95 1016.20 1016.52 1016.88 1017.23 1017.57 1017.87 1018.13 1018.37 1018.58 1018.77 1018.96
1015.00 1015.58 1016.19 1016.72 1017.08 1017.17 1016.98 1016.53 1015.87 1015.12 1014.39 1013.77 1013.32 1013.06 1012.96 1012.94 1012.95 1012.91 1012.78 1012.57 1012.30 1012.05 1011.89 1011.88 1012.06 1012.43 1012.95 1013.56 1014.17 1014.71 1015.14 1015.42 1015.58 1015.64 1015.66 1015.69 1015.78 1015.94 1016.18 1016.48 1016.81 1017.14 1017.44 1017.71 1017.94 1018.15 1018.34 1018.52 1018.71
1014.77 1015.54 1016.35 1017.06 1017.55 1017.74 1017.57 1017.06 1016.31 1015.43 1014.55 1013.79 1013.24 1012.92 1012.81 1012.85 1012.95 1013.04 1013.04 1012.95 1012.78 1012.59 1012.43 1012.38 1012.48 1012.75 1013.15 1013.63 1014.15 1014.62 1015.00 1015.27 1015.42 1015.50 1015.55 1015.61 1015.71 1015.88 1016.12 1016.40 1016.70 1017.00 1017.27 1017.50 1017.70 1017.88 1018.05 1018.22 1018.41
1014.61 1015.54 1016.52 1017.38 1017.99 1018.23 1018.07 1017.52 1016.67 1015.66 1014.64 1013.75 1013.10 1012.71 1012.59 1012.66 1012.84 1013.03 1013.16 1013.19 1013.12 1012.98 1012.84 1012.76 1012.78 1012.94 1013.21 1013.58 1013.98 1014.37 1014.71 1014.96 1015.13 1015.24 1015.32 1015.42 1015.56 1015.75 1015.99 1016.26 1016.55 1016.82 1017.06 1017.27 1017.44 1017.59 1017.75 1017.91 1018.11
1014.50 1015.55 1016.64 1017.60 1018.28 1018.55 1018.38 1017.79 1016.86 1015.75 1014.62 1013.63 1012.89 1012.45 1012.31 1012.40 1012.65 1012.93 1013.17 1013.30 1013.32 1013.24 1013.12 1013.01 1012.97 1013.03 1013.20 1013.45 1013.75 1014.06 1014.34 1014.56 1014.74 1014.87 1014.99 1015.13 1015.30 1015.51 1015.77 1016.05 1016.33 1016.59 1016.82 1017.02 1017.18 1017.32 1017.47 1017.63 1017.82
1014.40 1015.50 1016.64 1017.64 1018.33 1018.61 1018.43 1017.80 1016.83 1015.66 1014.48 1013.43 1012.64 1012.17 1012.02 1012.13 1012.41 1012.77 1013.08 1013.30 1013.40 1013.38 1013.29 1013.18 1013.10 1013.10 1013.17 1013.33 1013.53 1013.76 1013.98 1014.17 1014.33 1014.47 1014.61 1014.76 1014.95 1015.18 1015.44 1015.73 1016.02 1016.29 1016.53 1016.73 1016.90 1017.06 1017.21 1017.38 1017.58
1014.29 1015.37 1016.48 1017.44 1018.10 1018.35 1018.15 1017.52 1016.55 1015.39 1014.21 1013.16 1012.38 1011.91 1011.76 1011.89 1012.20 1012.59 1012.96 1013.24 1013.40 1013.44 1013.39 1013.30 1013.21 1013.17 1013.20 1013.29 1013.42 1013.58 1013.74 1013.88 1014.00 1014.10 1014.22 1014.36 1014.53 1014.75 1015.01 1015.30 1015.60 1015.89 1016.16 1016.39 1016.60 1016.79 1016.97 1017.15 1017.35
1014.16 1015.14 1016.14 1017.00 1017.58 1017.79 1017.57 1016.96 1016.04 1014.95 1013.85 1012.88 1012.15 1011.72 1011.60 1011.73 1012.04 1012.44 1012.82 1013.13 1013.33 1013.42 1013.42 1013.37 1013.31 1013.29 1013.30 1013.37 1013.46 1013.57 1013.66 1013.74 1013.79 1013.83 1013.88 1013.96 1014.08 1014.26 1014.50 1014.78 1015.08 1015.39 1015.70 1015.98 1016.24 1016.47 1016.69 1016.91 1017.12
1014.03 1014.85 1015.68 1016.40 1016.87 1017.01 1016.79 1016.23 1015.42 1014.46 1013.50 1012.66 1012.03 1011.67 1011.57 1011.70 1011.99 1012.35 1012.71 1013.01 1013.22 1013.33 1013.38 1013.39 1013.39 1013.42 1013.47 1013.55 1013.64 1013.71 1013.75 1013.76 1013.72 1013.67 1013.63 1013.61 1013.65 1013.76 1013.94 1014.19 1014.48 1014.81 1015.15 1015.49 1015.80 1016.10 1016.37 1016.62 1016.86
Thickness
5785 5784 5781 5766 5741 5717 5711 5719 5726 5728 5730 5736 5739 5735 5728 5724 5719 5716 5735 5743 5745 5746 5747 5747 5747 5748 5748 5748 5747 5747 5747 5748 5748 5748 5749 5749 5750 5750 5751 5751 5752 5752 5753 5754 5754 5755 5755 5756 5756
5784 5782 5770 5750 5721 5700 5708 5721 5724 5729 5735 5739 5738 5734 5728 5726 5732 5732 5736 5741 5743 5744 5744 5745 5745 5745 5745 5745 5745 5744 5744 5745 5745 5745 5745 5745 5746 5747 5747 5748 5749 5749 5750 5750 5751 5751 5752 5752 5752
5783 5777 5754 5732 5714 5704 5711 5723 5726 5734 5739 5738 5733 5732 5728 5726 5731 5733 5738 5740 5741 5741 5742 5742 5743 5742 5742 5742 5742 5742 5741 5741 5741 5742 5742 5742 5743 5743 5744 5745 5745 5745 5746 5747 5747 5747 5748 5748 5748
5775 5760 5744 5723 5713 5718 5722 5727 5731 5733 5736 5737 5732 5726 5728 5734 5735 5737 5739 5739 5739 5738 5739 5739 5739 5739 5739 5739 5738 5738 5738 5738 5738 5738 5738 5739 5739 5740 5741 5741 5741 5742 5742 5743 5743 5744 5744 5744 5744
5767 5746 5724 5711 5715 5723 5728 5732 5734 5730 5729 5730 5729 5721 5722 5733 5737 5738 5738 5737 5736 5735 5735 5736 5736 5735 5735 5735 5735 5735 5735 5735 5735 5735 5735 5735 5736 5736 5737 5738 5738 5738 5738 5739 5739 5740 5740 5740 5740
5749 5734 5710 5703 5713 5723 5730 5734 5732 5728 5727 5728 5726 5720 5720 5731 5733 5734 5735 5735 5734 5733 5732 5732 5732 5732 5732 5732 5732 5732 5732 5732 5732 5732 5732 5732 5732 5732 5733 5734 5734 5734 5734 5735 5735 5735 5735 5735 5736
5741 5724 5710 5709 5711 5718 5728 5734 5728 5725 5723 5725 5727 5718 5720 5727 5731 5733 5733 5732 5731 5730 5729 5729 5729 5729 5729 5729 5728 5728 5728 5728 5728 5728 5728 5728 5728 5729 5729 5729 5730 5730 5730 5730 5731 5731 5731 5731 5731
5747 5726 5712 5709 5711 5717 5729 5733 5732 5728 5725 5731 5729 5717 5716 5726 5730 5730 5729 5728 5727 5726 5725 5725 5725 5725 5725 5725 5725 5725 5725 5725 5725 5724 5724 5724 5724 5724 5725 5725 5726 5726 5726 5726 5726 5726 5726 5726 5726
5751 5720 5707 5713 5714 5720 5730 5729 5731 5734 5728 5727 5728 5725 5727 5729 5728 5725 5723 5722 5721 5722 5722 5722 5722 5722 5722 5722 5722 5722 5722 5722 5721 5720 5720 5720 5720 5720 5720 5720 5721 5721 5721 5721 5721 5721 5721 5721 5721
5738 5714 5719 5728 5728 5727 5729 5729 5728 5725 5720 5719 5721 5724 5727 5726 5723 5719 5717 5716 5716 5717 5718 5718 5718 5718 5718 5719 5719 5719 5718 5718 5717 5717 5716 5716 5715 5715 5715 5715 5715 5716 5716 5716 5715 5715 5715 5715 5715
5738 5725 5730 5734 5736 5734 5729 5728 5729 5720 5713 5717 5717 5719 5721 5720 5717 5715 5715 5714 5714 5715 5715 5716 5715 5715 5715 5715 5715 5715 5714 5714 5714 5713 5712 5712 5711 5711 5710 5710 5710 5710 5710 5710 5710 5709 5709 5709 5709
5736 5735 5736 5736 5739 5734 5729 5727 5722 5720 5719 5725 5724 5721 5718 5714 5713 5712 5712 5712 5713 5713 5713 5714 5713 5712 5712 5712 5712 5711 5711 5710 5710 5709 5709 5708 5707 5706 5706 5705 5705 5705 5705 5704 5704 5704 5704 5704 5704
5734 5734 5737 5738 5736 5733 5729 5723 5720 5718 5723 5724 5722 5718 5714 5712 5711 5711 5712 5711 5711 5710 5711 5711 5711 5710 5709 5709 5708 5708 5707 5707 5706 5706 5705 5704 5703 5702 5701 5701 5700 5700 5700 5699 5699 5699 5698 5698 5699
5735 5733 5732 5734 5733 5730 5723 5719 5717 5715 5720 5718 5715 5712 5710 5709 5709 5708 5708 5707 5707 5708 5708 5709 5709 5708 5707 5706 5705 5704 5704 5703 5703 5702 5702 5701 5700 5698 5697 5696 5696 5696 5695 5695 5694 5694 5693 5693 5693
5736 5726 5724 5726 5727 5725 5721 5709 5710 5716 5716 5711 5709 5708 5707 5707 5706 5705 5706 5706 5706 5706 5706 5706 5707 5706 5705 5703 5702 5701 5700 5700 5699 5699 5698 5697 5696 5695 5693 5692 5692 5691 5691 5691 5690 5689 5689 5688 5688
5725 5714 5706 5716 5721 5720 5713 5697 5709 5714 5710 5705 5703 5703 5703 5703 5704 5704 5705 5705 5705 5704 5703 5704 5705 5703 5702 5700 5699 5698 5697 5696 5696 5695 5694 5693 5693 5691 5690 5689 5688 5687 5687 5686 5685 5684 5683 5682 5681
5706 5698 5700 5708 5717 5715 5707 5698 5707 5710 5707 5701 5699 5699 5699 5699 5701 5702 5703 5703 5703 5701 5700 5700 5701 5699 5698 5697 5696 5694 5693 5692 5691 5690 5690 5689 5688 5687 5686 5685 5684 5683 5683 5682 5681 5679 5678 5676 5676
5696 5697 5698 5700 5709 5708 5700 5698 5704 5705 5704 5699 5697 5696 5696 5696 5699 5700 5701 5701 5700 5699 5698 5697 5696 5696 5695 5693 5691 5689 5688 5687 5686 5685 5685 5684 5683 5683 5682 5681 5680 5679 5678 5677 5676 5674 5673 5672 5671
5706 5699 5695 5700 5710 5703 5697 5697 5700 5701 5699 5696 5693 5693 5694 5696 5698 5697 5697 5697 5696 5694 5693 5692 5691 5690 5690 5688 5685 5683 5681 5681 5681 5680 5680 5679 5679 5679 5678 5676 5675 5674 5673 5672 5671 5670 5668 5666 5666
5703 5696 5693 5699 5706 5700 5693 5693 5699 5700 5697 5697 5695 5693 5693 5693 5693 5693 5692 5692 5691 5690 5689 5688 5686 5685 5685 5683 5682 5680 5678 5676 5675 5675 5675 5675 5674 5674 5674 5672 5670 5670 5669 5667 5666 5665 5663 5662 5661
5699 5695 5695 5694 5698 5697 5691 5686 5692 5697 5698 5697 5696 5694 5693 5693 5690 5688 5688 5687 5686 5684 5683 5684 5681 5680 5679 5678 5677 5676 5673 5672 5670 5669 5669 5669 5669 5669 5669 5667 5666 5665 5664 5663 5662 5661 5660 5657 5656
5693 5704 5701 5695 5684 5676 5683 5666 5685 5689 5690 5692 5691 5690 5690 5691 5689 5686 5684 5683 5681 5680 5679 5677 5675 5674 5673 5672 5671 5670 5667 5664 5664 5663 5663 5664 5664 5664 5664 5662 5661 5660 5659 5658 5658 5657 5656 5654 5651
5700 5706 5699 5692 5681 5671 5673 5664 5672 5683 5683 5688 5689 5689 5689 5689 5687 5684 5682 5680 5678 5676 5674 5671 5670 5668 5666 5666 5665 5663 5661 5659 5658 5659 5658 5658 5659 5658 5658 5657 5657 5656 5655 5654 5653 5652 5651 5650 5648
5704 5694 5684 5674 5667 5658 5667 5660 5664 5675 5684 5689 5690 5688 5687 5685 5683 5681 5679 5676 5673 5671 5669 5666 5664 5661 5660 5659 5657 5656 5654 5653 5653 5652 5652 5652 5652 5652 5652 5652 5652 5651 5650 5649 5648 5648 5646 5645 5644
5694 5675 5656 5654 5646 5650 5665 5660 5665 5685 5690 5690 5688 5686 5684 5682 5679 5676 5673 5670 5668 5665 5663 5661 5658 5656 5654 5653 5651 5650 5649 5648 5648 5647 5646 5646 5646 5646 5646 5647 5646 5646 5645 5645 5644 5643 5642 5641 5640
5684 5675 5653 5645 5641 5646 5658 5655 5671 5686 5689 5689 5688 5684 5680 5677 5675 5673 5670 5667 5664 5661 5658 5656 5653 5651 5649 5647 5646 5644 5643 5642 5642 5642 5641 5641 5641 5641 5642 5642 5641 5641 5640 5640 5639 5639 5637 5636 5635
5678 5669 5669 5651 5647 5641 5647 5657 5672 5682 5682 5682 5681 5678 5675 5673 5671 5668 5665 5663 5660 5657 5654 5652 5649 5646 5644 5642 5640 5639 5637 5637 5636 5636 5636 5636 5636 5636 5637 5637 5636 5636 5636 5635 5634 5633 5632 5632 5631
5682 5669 5654 5646 5636 5632 5643 5648 5654 5670 5672 5674 5673 5672 5670 5669 5666 5663 5661 5658 5655 5652 5649 5647 5644 5641 5639 5637 5635 5634 5632 5632 5631 5631 5630 5630 5630 5631 5631 5631 5631 5631 5631 5630 5629 5628 5627 5626 5625
5669 5663 5652 5640 5638 5628 5628 5643 5668 5669 5671 5669 5670 5669 5667 5664 5662 5659 5656 5653 5650 5647 5644 5641 5638 5636 5633 5631 5629 5628 5627 5626 5626 5625 5625 5625 5625 5625 5625 5625 5626 5625 5625 5625 5623 5622 5622 5620 5620
5672 5665 5650 5641 5635 5628 5625 5639 5673 5670 5670 5668 5667 5666 5664 5661 5658 5655 5651 5647 5644 5641 5639 5636 5633 5630 5628 5626 5624 5622 5621 5620 5620 5619 5620 5620 5620 5620 5620 5620 5620 5620 5620 5619 5618 5617 5616 5615 5613